Starlink 30964

operational
NORAD ID: 58402 Int'l Des: 2023-180 Owner: SPXS Country: US Constellation: starlink
LEOCIRCULAR

Starlink 30964について

説明を読み込み中...

リアルタイム位置

3D地球を読み込み中...

次回通過

高度履歴

Altitude vs Time

uPlot chart will show altitude changes over time

軌道要素

1 58402U 23180A 25351.75615207 .00000126 00000-0 24427-4 0 9994
2 58402 43.0026 140.9323 0001269 258.4674 101.6026 15.02535132115260
Epoch: Dec 17, 2025 • Age: 28 hours

現在のステータス

高度 565.5 km
速度 7.58 km/s
衛星直下点 -27.31°S, 73.61°W
打ち上げ日 Nov 22, 2023
運用期間 2 years
タイプ internet

技術仕様

分類 Payload
質量 730.00 kg
乾燥質量 700.00 kg
総質量 730.00 kg
長さ 0.30 m
直径 4.10 m
スパン 29.00 m
形状 Box + pan
製造者 SPXS
バスタイプ Starlink V2M
フェーズステータス In Orbit
所有者/国 SPXS/US

大規模コンステレーション

Loading constellations...